| time (UTC) | temp F | wind direction | speed MPH | gust MPH | rain 1hr in | rain 24hr in | rain mn in | humidity % | barometer mb |
| 20260503203049 | 69 | 301 | 7.0 | 12.0 | 0.00 | 0.00 | 0.00 | 58 | 1010.7 |
| 20260503201549 | 69 | 318 | 6.0 | 12.0 | 0.00 | 0.00 | 0.00 | 58 | 1010.7 |
| 20260503200044 | 68 | 300 | 6.0 | 13.0 | 0.00 | 0.00 | 0.00 | 60 | 1011.0 |
| 20260503194545 | 68 | 277 | 5.0 | 11.0 | 0.00 | 0.00 | 0.00 | 62 | 1011.3 |
| 20260503193035 | 67 | 347 | 5.0 | 11.0 | 0.00 | 0.00 | 0.00 | 64 | 1011.5 |
| 20260503191533 | 67 | 295 | 4.0 | 11.0 | 0.00 | 0.00 | 0.00 | 65 | 1011.6 |
| 20260503190040 | 68 | 287 | 5.0 | 9.0 | 0.00 | 0.00 | 0.00 | 65 | 1011.7 |
| 20260503184528 | 67 | 300 | 2.0 | 9.0 | 0.00 | 0.00 | 0.00 | 69 | 1011.9 |
| 20260503183031 | 66 | 276 | 2.0 | 8.0 | 0.00 | 0.00 | 0.00 | 72 | 1012.0 |
| 20260503181541 | 66 | 302 | 3.0 | 7.0 | 0.00 | 0.00 | 0.00 | 71 | 1012.1 |
| 20260503180038 | 65 | 294 | 4.0 | 10.0 | 0.00 | 0.00 | 0.00 | 72 | 1012.2 |
| 20260503174519 | 64 | 306 | 2.0 | 6.0 | 0.00 | 0.00 | 0.00 | 74 | 1012.4 |
| 20260503173016 | 63 | 246 | 3.0 | 7.0 | 0.00 | 0.00 | 0.00 | 75 | 1012.4 |
| 20260503171522 | 63 | 290 | 1.0 | 7.0 | 0.00 | 0.00 | 0.00 | 76 | 1012.6 |
| 20260503081520 | 55 | 349 | 0.0 | 0.0 | 0.00 | 0.00 | 0.00 | 83 | 1012.9 |
| 20260503071509 | 57 | 349 | 0.0 | 0.0 | 0.00 | 0.00 | 0.00 | 79 | 1012.6 |
| 20260503054502 | 59 | 251 | 0.0 | 0.0 | 0.00 | 0.00 | 0.00 | 75 | 1012.5 |
| 20260503053008 | 60 | 251 | 0.0 | 1.0 | 0.00 | 0.00 | 0.00 | 74 | 1012.6 |
| 20260503051502 | 61 | 275 | 1.0 | 4.0 | 0.00 | 0.00 | 0.00 | 73 | 1012.5 |
| 20260503050002 | 60 | 309 | 0.0 | 3.0 | 0.00 | 0.00 | 0.00 | 76 | 1012.4 |
| 20260503044501 | 60 | 285 | 0.0 | 3.0 | 0.00 | 0.00 | 0.00 | 76 | 1012.3 |
| 20260503043101 | 61 | 272 | 0.0 | 3.0 | 0.00 | 0.00 | 0.00 | 76 | 1012.2 |
| 20260503041613 | 61 | 309 | 2.0 | 6.0 | 0.00 | 0.00 | 0.00 | 74 | 1012.0 |
| 20260503040100 | 62 | 308 | 2.0 | 6.0 | 0.00 | 0.00 | 0.00 | 71 | 1011.8 |
| 20260503034601 | 62 | 301 | 3.0 | 6.0 | 0.00 | 0.00 | 0.00 | 69 | 1011.6 |
| 20260503033116 | 63 | 313 | 0.0 | 5.0 | 0.00 | 0.00 | 0.00 | 70 | 1011.5 |
| 20260503031558 | 64 | 251 | 2.0 | 6.0 | 0.00 | 0.00 | 0.00 | 68 | 1011.4 |
| 20260503030106 | 65 | 292 | 1.0 | 5.0 | 0.00 | 0.00 | 0.00 | 66 | 1011.2 |
| 20260503024602 | 66 | 284 | 2.0 | 6.0 | 0.00 | 0.00 | 0.00 | 64 | 1011.2 |
| 20260503023057 | 66 | 278 | 2.0 | 5.0 | 0.00 | 0.00 | 0.00 | 65 | 1011.2 |
| 20260503021559 | 66 | 315 | 2.0 | 8.0 | 0.00 | 0.00 | 0.00 | 66 | 1011.2 |
| 20260503014555 | 69 | 312 | 3.0 | 9.0 | 0.00 | 0.00 | 0.00 | 57 | 1011.2 |
| 20260503013050 | 68 | 277 | 1.0 | 6.0 | 0.00 | 0.00 | 0.00 | 64 | 1011.3 |
| 20260503011601 | 67 | 295 | 5.0 | 9.0 | 0.00 | 0.00 | 0.00 | 64 | 1011.4 |
| 20260503010049 | 67 | 262 | 5.0 | 12.0 | 0.00 | 0.00 | 0.00 | 65 | 1011.5 |
| 20260503004550 | 67 | 283 | 5.0 | 11.0 | 0.00 | 0.00 | 0.00 | 65 | 1011.5 |
| 20260503003046 | 68 | 308 | 5.0 | 10.0 | 0.00 | 0.00 | 0.00 | 63 | 1011.5 |
| 20260503001546 | 68 | 295 | 2.0 | 10.0 | 0.00 | 0.00 | 0.00 | 64 | 1011.6 |
| 20260503000044 | 68 | 295 | 4.0 | 12.0 | 0.00 | 0.00 | 0.00 | 62 | 1011.7 |
| 20260502234550 | 68 | 348 | 3.0 | 13.0 | 0.00 | 0.00 | 0.00 | 62 | 1011.8 |
| 20260502233039 | 68 | 304 | 4.0 | 12.0 | 0.00 | 0.00 | 0.00 | 63 | 1012.1 |
| 20260502231538 | 66 | 311 | 4.0 | 11.0 | 0.00 | 0.00 | 0.00 | 68 | 1012.2 |
| 20260502230032 | 66 | 295 | 5.0 | 11.0 | 0.00 | 0.00 | 0.00 | 68 | 1012.4 |
| 20260502224530 | 66 | 306 | 6.0 | 12.0 | 0.00 | 0.00 | 0.00 | 69 | 1012.6 |
| 20260502223028 | 66 | 292 | 6.0 | 13.0 | 0.00 | 0.00 | 0.00 | 69 | 1012.9 |
| 20260502221526 | 66 | 264 | 4.0 | 11.0 | 0.00 | 0.00 | 0.00 | 70 | 1013.1 |
| 20260502220027 | 66 | 295 | 4.0 | 13.0 | 0.00 | 0.00 | 0.00 | 71 | 1013.2 |
| 20260502214520 | 66 | 255 | 4.0 | 11.0 | 0.00 | 0.00 | 0.00 | 70 | 1013.4 |
| 20260502213027 | 66 | 275 | 5.0 | 13.0 | 0.00 | 0.00 | 0.00 | 69 | 1013.5 |
| 20260502211516 | 65 | 316 | 4.0 | 13.0 | 0.00 | 0.00 | 0.00 | 71 | 1013.6 |
| 20260502210013 | 65 | 302 | 5.0 | 13.0 | 0.00 | 0.00 | 0.00 | 70 | 1013.7 |
| 20260502204510 | 65 | 285 | 3.0 | 13.0 | 0.00 | 0.00 | 0.00 | 70 | 1013.9 |